When you browse on this site, cookies collect data to enhance your experience and personalize the content and advertising you see.
Visit our Privacy Policy to learn more. By continuing to use the site, you agree to this use of cookies and data.
  • In Deutschland
  • Länderverzeichnis
  • Für 7 Tage
  • Wassertemperatur
  • Wetterkarte
  • Widgets
  • user-avatar
    Anmelden

    Stündliche Wetter Ondjiwa

    Heute, 7 Dezember, Samstag

    Zeit Temperatur Niederschläge Wind Luftdruck Luftfeuchtigkeit
    00:00 +25°C° 0.2 mm 1 m/S 665 mmHg 63%
    01:00 +25°C° 0 mm 1 m/S 665 mmHg 62%
    02:00 +24°C° 0 mm 2 m/S 665 mmHg 62%
    03:00 +24°C° 0 mm 2 m/S 665 mmHg 62%
    04:00 +22°C° 0 mm 3 m/S 665 mmHg 62%
    05:00 +24°C° 0 mm 3 m/S 666 mmHg 61%
    06:00 +24°C° 0 mm 3 m/S 666 mmHg 59%
    07:00 +24°C° 0 mm 3 m/S 666 mmHg 58%
    08:00 +26°C° 0 mm 3 m/S 667 mmHg 53%
    09:00 +28°C° 0 mm 2 m/S 667 mmHg 48%
    10:00 +30°C° 0 mm 2 m/S 667 mmHg 43%
    11:00 +31°C° 0 mm 2 m/S 667 mmHg 39%
    12:00 +32°C° 0 mm 2 m/S 666 mmHg 35%
    13:00 +34°C° 0 mm 2 m/S 666 mmHg 31%
    14:00 +34°C° 0 mm 2 m/S 665 mmHg 31%
    15:00 +34°C° 0 mm 3 m/S 664 mmHg 31%
    16:00 +33°C° 0 mm 3 m/S 664 mmHg 31%
    17:00 +31°C° 0 mm 2 m/S 664 mmHg 33%
    18:00 +30°C° 0 mm 2 m/S 664 mmHg 35%
    19:00 +29°C° 0 mm 1 m/S 664 mmHg 38%
    20:00 +28°C° 0 mm 1 m/S 664 mmHg 39%
    21:00 +28°C° 0 mm 1 m/S 665 mmHg 40%
    22:00 +27°C° 0 mm 2 m/S 665 mmHg 41%
    23:00 +27°C° 0 mm 3 m/S 665 mmHg 43%

    Morgen, 8 Dezember, Sonntag

    Zeit Temperatur Niederschläge Wind Luftdruck Luftfeuchtigkeit
    00:00 +26°C° 0 mm 3 m/S 665 mmHg 44%
    01:00 +26°C° 0 mm 4 m/S 665 mmHg 46%
    02:00 +25°C° 0 mm 4 m/S 665 mmHg 49%
    03:00 +23°C° 0 mm 4 m/S 665 mmHg 51%
    04:00 +22°C° 0 mm 3 m/S 664 mmHg 54%
    05:00 +24°C° 0 mm 3 m/S 665 mmHg 53%
    06:00 +24°C° 0 mm 3 m/S 666 mmHg 52%
    07:00 +24°C° 0 mm 3 m/S 666 mmHg 51%
    08:00 +26°C° 0 mm 4 m/S 666 mmHg 46%
    09:00 +27°C° 0 mm 4 m/S 666 mmHg 40%
    10:00 +29°C° 0 mm 4 m/S 666 mmHg 34%
    11:00 +30°C° 0 mm 4 m/S 666 mmHg 32%
    12:00 +32°C° 0 mm 4 m/S 666 mmHg 29%
    13:00 +33°C° 0 mm 4 m/S 665 mmHg 27%
    14:00 +33°C° 0 mm 3 m/S 665 mmHg 26%
    15:00 +34°C° 0 mm 3 m/S 664 mmHg 26%
    16:00 +34°C° 0 mm 3 m/S 664 mmHg 25%
    17:00 +32°C° 0 mm 2 m/S 664 mmHg 27%
    18:00 +31°C° 0 mm 1 m/S 664 mmHg 30%
    19:00 +29°C° 0 mm 1 m/S 664 mmHg 33%
    20:00 +28°C° 0 mm 2 m/S 665 mmHg 34%
    21:00 +27°C° 0 mm 3 m/S 665 mmHg 35%
    22:00 +26°C° 0 mm 4 m/S 665 mmHg 36%
    23:00 +25°C° 0 mm 4 m/S 665 mmHg 40%

    übermorgen, 9 Dezember, Montag

    Zeit Temperatur Niederschläge Wind Luftdruck Luftfeuchtigkeit
    00:00 +24°C° 0 mm 3 m/S 665 mmHg 44%
    01:00 +22°C° 0 mm 3 m/S 664 mmHg 47%
    02:00 +21°C° 0 mm 2 m/S 664 mmHg 51%
    03:00 +21°C° 0 mm 2 m/S 664 mmHg 55%
    04:00 +20°C° 0 mm 2 m/S 664 mmHg 59%
    05:00 +21°C° 0 mm 2 m/S 665 mmHg 57%
    06:00 +21°C° 0 mm 2 m/S 665 mmHg 54%
    07:00 +22°C° 0 mm 3 m/S 666 mmHg 52%
    08:00 +25°C° 0 mm 3 m/S 666 mmHg 43%
    09:00 +27°C° 0 mm 3 m/S 667 mmHg 35%
    10:00 +29°C° 0 mm 3 m/S 667 mmHg 26%
    11:00 +30°C° 0 mm 3 m/S 667 mmHg 24%
    12:00 +31°C° 0 mm 3 m/S 666 mmHg 21%
    13:00 +34°C° 0 mm 4 m/S 666 mmHg 19%
    14:00 +34°C° 0 mm 4 m/S 665 mmHg 18%
    15:00 +34°C° 0 mm 4 m/S 665 mmHg 16%
    16:00 +34°C° 0 mm 4 m/S 665 mmHg 15%
    17:00 +32°C° 0 mm 4 m/S 665 mmHg 16%
    18:00 +29°C° 0 mm 4 m/S 664 mmHg 18%
    19:00 +27°C° 0 mm 3 m/S 664 mmHg 20%
    20:00 +26°C° 0 mm 3 m/S 665 mmHg 23%
    21:00 +25°C° 0 mm 4 m/S 665 mmHg 26%
    22:00 +23°C° 0 mm 4 m/S 665 mmHg 29%
    23:00 +22°C° 0 mm 4 m/S 665 mmHg 32%

    10 Dezember, Dienstag

    Zeit Temperatur Niederschläge Wind Luftdruck Luftfeuchtigkeit
    00:00 +21°C° 0 mm 3 m/S 665 mmHg 34%
    01:00 +21°C° 0 mm 3 m/S 665 mmHg 36%
    02:00 +20°C° 0 mm 3 m/S 665 mmHg 40%
    03:00 +19°C° 0 mm 2 m/S 665 mmHg 44%
    04:00 +19°C° 0 mm 2 m/S 665 mmHg 48%
    05:00 +20°C° 0 mm 2 m/S 665 mmHg 48%
    06:00 +20°C° 0 mm 2 m/S 666 mmHg 47%
    07:00 +22°C° 0 mm 1 m/S 666 mmHg 47%
    08:00 +25°C° 0 mm 1 m/S 667 mmHg 40%
    09:00 +27°C° 0 mm 1 m/S 667 mmHg 33%
    10:00 +28°C° 0 mm 0 m/S 668 mmHg 26%
    11:00 +31°C° 0 mm 1 m/S 667 mmHg 23%
    12:00 +31°C° 0 mm 2 m/S 667 mmHg 20%
    13:00 +32°C° 0 mm 2 m/S 666 mmHg 17%
    14:00 +32°C° 0 mm 2 m/S 666 mmHg 16%
    15:00 +34°C° 0 mm 3 m/S 665 mmHg 14%
    16:00 +34°C° 0 mm 3 m/S 665 mmHg 12%
    17:00 +31°C° 0 mm 2 m/S 665 mmHg 14%
    18:00 +29°C° 0 mm 2 m/S 665 mmHg 16%
    19:00 +27°C° 0 mm 1 m/S 665 mmHg 18%
    20:00 +26°C° 0 mm 2 m/S 665 mmHg 20%
    21:00 +26°C° 0 mm 2 m/S 665 mmHg 22%
    22:00 +25°C° 0 mm 3 m/S 666 mmHg 25%
    23:00 +24°C° 0 mm 3 m/S 666 mmHg 31%

    11 Dezember, Mittwoch

    Zeit Temperatur Niederschläge Wind Luftdruck Luftfeuchtigkeit
    00:00 +22°C° 0 mm 3 m/S 666 mmHg 37%
    01:00 +21°C° 0 mm 3 m/S 665 mmHg 43%
    02:00 +20°C° 0 mm 3 m/S 665 mmHg 47%
    03:00 +20°C° 0 mm 2 m/S 665 mmHg 50%
    04:00 +19°C° 0 mm 2 m/S 665 mmHg 54%
    05:00 +20°C° 0 mm 2 m/S 666 mmHg 51%
    06:00 +21°C° 0 mm 2 m/S 666 mmHg 48%
    07:00 +21°C° 0 mm 2 m/S 667 mmHg 45%
    08:00 +25°C° 0 mm 2 m/S 667 mmHg 39%
    09:00 +27°C° 0 mm 3 m/S 667 mmHg 32%
    10:00 +29°C° 0 mm 3 m/S 668 mmHg 26%
    11:00 +30°C° 0 mm 2 m/S 668 mmHg 23%
    12:00 +32°C° 0 mm 2 m/S 667 mmHg 20%
    13:00 +34°C° 0 mm 2 m/S 667 mmHg 18%
    14:00 +35°C° 0 mm 2 m/S 666 mmHg 17%
    15:00 +34°C° 0 mm 1 m/S 666 mmHg 17%
    16:00 +34°C° 0 mm 1 m/S 665 mmHg 17%
    17:00 +32°C° 0 mm 2 m/S 665 mmHg 19%
    18:00 +30°C° 0 mm 2 m/S 665 mmHg 21%
    19:00 +28°C° 0 mm 2 m/S 665 mmHg 24%
    20:00 +27°C° 0 mm 2 m/S 665 mmHg 25%
    21:00 +27°C° 0 mm 2 m/S 666 mmHg 26%
    22:00 +26°C° 0 mm 2 m/S 666 mmHg 26%
    23:00 +25°C° 0 mm 3 m/S 666 mmHg 30%

    12 Dezember, Donnerstag

    Zeit Temperatur Niederschläge Wind Luftdruck Luftfeuchtigkeit
    00:00 +24°C° 0 mm 3 m/S 666 mmHg 33%
    01:00 +22°C° 0 mm 4 m/S 666 mmHg 37%
    02:00 +22°C° 0 mm 3 m/S 666 mmHg 40%
    03:00 +21°C° 0 mm 3 m/S 666 mmHg 43%
    04:00 +20°C° 0 mm 2 m/S 665 mmHg 46%
    05:00 +21°C° 0 mm 3 m/S 666 mmHg 43%
    06:00 +22°C° 0 mm 3 m/S 666 mmHg 39%
    07:00 +24°C° 0 mm 3 m/S 667 mmHg 36%
    08:00 +26°C° 0 mm 3 m/S 667 mmHg 31%
    09:00 +29°C° 0 mm 3 m/S 668 mmHg 25%
    10:00 +31°C° 0 mm 3 m/S 668 mmHg 20%
    11:00 +33°C° 0 mm 3 m/S 668 mmHg 18%
    12:00 +35°C° 0 mm 2 m/S 667 mmHg 17%
    13:00 +36°C° 0 mm 2 m/S 667 mmHg 15%
    14:00 +36°C° 0 mm 2 m/S 666 mmHg 15%
    15:00 +36°C° 0 mm 3 m/S 666 mmHg 15%
    16:00 +36°C° 0 mm 3 m/S 665 mmHg 15%
    17:00 +34°C° 0 mm 3 m/S 665 mmHg 17%
    18:00 +31°C° 0 mm 3 m/S 665 mmHg 18%
    19:00 +29°C° 0 mm 3 m/S 665 mmHg 20%
    20:00 +29°C° 0 mm 2 m/S 665 mmHg 21%
    21:00 +28°C° 0 mm 2 m/S 666 mmHg 21%
    22:00 +28°C° 0 mm 1 m/S 666 mmHg 22%
    23:00 +27°C° 0 mm 2 m/S 666 mmHg 25%
    Mehr zeigen